APG219 RPLL-RPVE

Flight info

Callsign APG219
Flight time 0h 34m
Altitude 25000
Route VERDE2R VERDE W24 TAPER TAPER7A
Aircraft A320/M-SDE3FGHIRWY/LB1

Departure

Time 2026-04-22 14:05
Airport Ninoy Aquino International Airport (RPLL)

Arrival

Time 2026-04-22 14:40
Airport Godofredo P. Ramos Airport (RPVE)
Time Latitude Longitude Altitude Speed Heading
2026-04-22 13:41 14.50844 121.01305 69 ft 0 kts 330°
2026-04-22 13:52 14.50825 121.01316 68 ft 4 kts 330°
2026-04-22 13:52 14.50805 121.01328 68 ft 1 kts 330°
2026-04-22 13:52 14.50785 121.01339 64 ft 4 kts 318°
2026-04-22 13:52 14.50776 121.01359 68 ft 4 kts 252°
2026-04-22 13:53 14.50777 121.01363 68 ft 4 kts 240°
2026-04-22 13:53 14.50763 121.01339 62 ft 4 kts 240°
2026-04-22 13:53 14.50760 121.01332 68 ft 0 kts 240°
2026-04-22 13:55 14.50756 121.01328 68 ft 3 kts 231°
2026-04-22 13:56 14.50727 121.01315 69 ft 5 kts 185°
2026-04-22 13:56 14.50686 121.01322 67 ft 7 kts 186°
2026-04-22 13:56 14.50651 121.01288 69 ft 8 kts 238°
2026-04-22 13:56 14.50621 121.01234 63 ft 10 kts 241°
2026-04-22 13:57 14.50585 121.01167 62 ft 12 kts 241°
2026-04-22 13:57 14.50541 121.01087 68 ft 14 kts 239°
2026-04-22 13:57 14.50488 121.00996 60 ft 16 kts 240°
2026-04-22 13:57 14.50430 121.00894 65 ft 18 kts 240°
2026-04-22 13:58 14.50364 121.00775 68 ft 20 kts 240°
2026-04-22 13:58 14.50289 121.00641 64 ft 22 kts 240°
2026-04-22 13:58 14.50209 121.00496 59 ft 25 kts 240°
2026-04-22 13:58 14.50121 121.00338 61 ft 26 kts 241°
2026-04-22 13:59 14.50034 121.00177 63 ft 23 kts 240°
2026-04-22 13:59 14.49974 121.00069 63 ft 14 kts 240°
2026-04-22 13:59 14.49926 120.99987 64 ft 12 kts 237°
2026-04-22 13:59 14.49902 120.99968 63 ft 5 kts 199°
2026-04-22 14:00 14.49895 120.99967 69 ft 0 kts 189°
2026-04-22 14:03 14.49892 120.99967 69 ft 2 kts 188°
2026-04-22 14:03 14.49869 120.99971 64 ft 5 kts 160°
2026-04-22 14:03 14.49827 120.99994 69 ft 8 kts 150°
2026-04-22 14:03 14.49812 121.00049 69 ft 10 kts 70°
2026-04-22 14:04 14.49846 121.00116 60 ft 10 kts 61°
2026-04-22 14:04 14.49884 121.00185 66 ft 15 kts 59°
2026-04-22 14:04 14.50000 121.00394 65 ft 62 kts 59°
2026-04-22 14:04 14.50315 121.00959 65 ft 119 kts 60°
2026-04-22 14:05 14.50806 121.01841 63 ft 163 kts 59°
2026-04-22 14:05 14.51395 121.02872 534 ft 168 kts 62°
2026-04-22 14:05 14.52588 121.05016 1730 ft 175 kts 63°
2026-04-22 14:06 14.53216 121.06161 2007 ft 192 kts 62°
2026-04-22 14:06 14.53913 121.07439 2213 ft 216 kts 63°
2026-04-22 14:06 14.54695 121.08853 2508 ft 238 kts 62°
2026-04-22 14:06 14.55538 121.10423 2893 ft 259 kts 67°
2026-04-22 14:07 14.55896 121.12230 3541 ft 265 kts 95°
2026-04-22 14:07 14.55357 121.14044 4297 ft 269 kts 122°
2026-04-22 14:07 14.54028 121.15416 5039 ft 274 kts 149°
2026-04-22 14:07 14.52213 121.16039 5784 ft 280 kts 172°
2026-04-22 14:08 14.50252 121.16191 6562 ft 284 kts 176°
2026-04-22 14:08 14.48261 121.16274 7315 ft 288 kts 177°
2026-04-22 14:08 14.46247 121.16344 8068 ft 291 kts 177°
2026-04-22 14:08 14.44232 121.16405 8809 ft 294 kts 177°
2026-04-22 14:09 14.42164 121.16460 9555 ft 297 kts 177°
2026-04-22 14:09 14.40107 121.16506 10174 ft 304 kts 178°
2026-04-22 14:09 14.37912 121.16355 10333 ft 328 kts 185°
2026-04-22 14:09 14.35571 121.16041 10462 ft 350 kts 187°
2026-04-22 14:10 14.33114 121.15661 10793 ft 362 kts 187°
2026-04-22 14:10 14.30607 121.15258 11348 ft 366 kts 188°
2026-04-22 14:10 14.28080 121.14853 11939 ft 368 kts 188°
2026-04-22 14:10 14.25533 121.14451 12517 ft 371 kts 188°
2026-04-22 14:11 14.22998 121.14059 13098 ft 374 kts 188°
2026-04-22 14:11 14.20415 121.13665 13712 ft 376 kts 188°
2026-04-22 14:11 14.17816 121.13274 14235 ft 378 kts 188°
2026-04-22 14:11 14.15203 121.12883 14748 ft 381 kts 188°
2026-04-22 14:12 14.12573 121.12492 15226 ft 383 kts 188°
2026-04-22 14:12 14.09922 121.12100 15711 ft 386 kts 188°
2026-04-22 14:12 14.07257 121.11706 16180 ft 389 kts 188°
2026-04-22 14:12 14.04561 121.11302 16650 ft 392 kts 188°
2026-04-22 14:13 14.01852 121.10891 17121 ft 395 kts 188°
2026-04-22 14:13 13.99102 121.10739 17588 ft 398 kts 174°
2026-04-22 14:13 13.96415 121.11412 18072 ft 400 kts 158°
2026-04-22 14:13 13.93839 121.12549 18505 ft 403 kts 156°
2026-04-22 14:14 13.91262 121.13710 18906 ft 406 kts 156°
2026-04-22 14:14 13.88695 121.14871 19306 ft 409 kts 157°
2026-04-22 14:14 13.86072 121.16057 19718 ft 412 kts 157°
2026-04-22 14:14 13.83431 121.17246 19892 ft 414 kts 157°
2026-04-22 14:15 13.80776 121.18440 20217 ft 417 kts 157°
2026-04-22 14:15 13.78116 121.19634 20650 ft 419 kts 157°
2026-04-22 14:15 13.75463 121.20821 21049 ft 422 kts 157°
2026-04-22 14:15 13.72757 121.22033 21448 ft 425 kts 157°
2026-04-22 14:16 13.70037 121.23253 21838 ft 427 kts 157°
2026-04-22 14:16 13.67300 121.24482 22219 ft 430 kts 157°
2026-04-22 14:16 13.64547 121.25719 22580 ft 433 kts 157°
2026-04-22 14:16 13.61774 121.26964 22925 ft 436 kts 157°
2026-04-22 14:17 13.58984 121.28212 23273 ft 438 kts 157°
2026-04-22 14:17 13.56212 121.29454 23589 ft 441 kts 157°
2026-04-22 14:17 13.53397 121.30725 23873 ft 443 kts 157°
2026-04-22 14:17 13.50569 121.32003 24167 ft 444 kts 157°
2026-04-22 14:18 13.47729 121.33286 24463 ft 446 kts 157°
2026-04-22 14:18 13.44887 121.34570 24752 ft 447 kts 157°
2026-04-22 14:18 13.42035 121.35851 24906 ft 447 kts 157°
2026-04-22 14:18 13.39169 121.37130 24944 ft 447 kts 157°
2026-04-22 14:19 13.36320 121.38400 24941 ft 446 kts 157°
2026-04-22 14:19 13.33508 121.39653 24942 ft 446 kts 157°
2026-04-22 14:19 13.30660 121.40921 24951 ft 446 kts 157°
2026-04-22 14:19 13.27811 121.42189 24942 ft 446 kts 157°
2026-04-22 14:20 13.22096 121.44732 24944 ft 446 kts 157°
2026-04-22 14:20 13.19284 121.45983 24945 ft 446 kts 157°
2026-04-22 14:20 13.16435 121.47252 24948 ft 446 kts 157°
2026-04-22 14:21 13.10732 121.49787 24949 ft 446 kts 157°
2026-04-22 14:21 13.07875 121.51056 24950 ft 446 kts 157°
2026-04-22 14:22 13.02215 121.53568 24937 ft 446 kts 157°
2026-04-22 14:22 12.99373 121.54827 24561 ft 441 kts 157°
2026-04-22 14:22 12.93769 121.57312 23413 ft 436 kts 157°
2026-04-22 14:23 12.90999 121.58542 23017 ft 433 kts 157°
2026-04-22 14:23 12.88229 121.59773 22761 ft 434 kts 157°
2026-04-22 14:23 12.85498 121.60991 22504 ft 433 kts 157°
2026-04-22 14:23 12.82732 121.62226 22262 ft 431 kts 157°
2026-04-22 14:24 12.79978 121.63455 22016 ft 430 kts 157°
2026-04-22 14:24 12.77242 121.64676 21756 ft 427 kts 156°
2026-04-22 14:24 12.74535 121.65885 21253 ft 423 kts 156°
2026-04-22 14:24 12.71871 121.67072 20701 ft 421 kts 156°
2026-04-22 14:25 12.69178 121.68272 20172 ft 418 kts 156°
2026-04-22 14:25 12.66520 121.69456 19647 ft 416 kts 156°
2026-04-22 14:25 12.63863 121.70638 19122 ft 415 kts 156°
2026-04-22 14:25 12.61217 121.71815 18597 ft 414 kts 156°
2026-04-22 14:26 12.58573 121.72990 18020 ft 414 kts 156°
2026-04-22 14:26 12.55964 121.74149 17445 ft 412 kts 156°
2026-04-22 14:26 12.53340 121.75317 16873 ft 409 kts 156°
2026-04-22 14:26 12.50729 121.76476 16289 ft 407 kts 156°
2026-04-22 14:27 12.48137 121.77624 15710 ft 405 kts 156°
2026-04-22 14:27 12.45556 121.78767 15113 ft 403 kts 156°
2026-04-22 14:27 12.42982 121.79905 14519 ft 401 kts 156°
2026-04-22 14:27 12.40458 121.81022 13926 ft 399 kts 157°
2026-04-22 14:28 12.37829 121.81924 13263 ft 397 kts 169°
2026-04-22 14:28 12.35094 121.82195 12661 ft 391 kts 182°
2026-04-22 14:28 12.32413 121.81852 12063 ft 385 kts 193°
2026-04-22 14:28 12.29803 121.81285 11468 ft 381 kts 193°
2026-04-22 14:29 12.27213 121.80724 10880 ft 378 kts 193°
2026-04-22 14:29 12.24694 121.80179 10532 ft 368 kts 192°
2026-04-22 14:29 12.22238 121.79648 10414 ft 352 kts 192°
2026-04-22 14:29 12.19886 121.79139 10296 ft 338 kts 192°
2026-04-22 14:30 12.17628 121.78649 10176 ft 325 kts 193°
2026-04-22 14:30 12.15472 121.78181 10070 ft 314 kts 192°
2026-04-22 14:30 12.13368 121.77728 9949 ft 304 kts 193°
2026-04-22 14:30 12.11325 121.77289 9736 ft 298 kts 194°
2026-04-22 14:31 12.09311 121.76855 9247 ft 293 kts 193°
2026-04-22 14:31 12.07326 121.76425 8793 ft 290 kts 193°
2026-04-22 14:31 12.05354 121.75996 8405 ft 289 kts 192°
2026-04-22 14:31 12.03383 121.75566 8076 ft 288 kts 192°
2026-04-22 14:32 12.01413 121.75135 7672 ft 290 kts 191°
2026-04-22 14:32 11.99433 121.74707 7250 ft 292 kts 191°
2026-04-22 14:32 11.97479 121.74285 6937 ft 289 kts 191°
2026-04-22 14:32 11.95524 121.73861 6481 ft 283 kts 191°
2026-04-22 14:33 11.93630 121.73450 6101 ft 274 kts 189°
2026-04-22 14:33 11.91785 121.73193 5731 ft 262 kts 176°
2026-04-22 14:33 11.90041 121.73513 5374 ft 249 kts 157°
2026-04-22 14:33 11.88493 121.74269 5034 ft 247 kts 150°
2026-04-22 14:34 11.86972 121.75061 4672 ft 242 kts 150°
2026-04-22 14:34 11.85510 121.75819 4335 ft 234 kts 149°
2026-04-22 14:34 11.84303 121.76847 4010 ft 217 kts 117°
2026-04-22 14:34 11.83994 121.78275 3708 ft 211 kts 81°
2026-04-22 14:35 11.84566 121.79622 3415 ft 205 kts 59°
2026-04-22 14:35 11.85257 121.80853 3160 ft 193 kts 64°
2026-04-22 14:35 11.85839 121.82020 2879 ft 176 kts 65°
2026-04-22 14:35 11.86360 121.83095 2631 ft 161 kts 65°
2026-04-22 14:36 11.86682 121.83758 2481 ft 153 kts 65°
2026-04-22 14:36 11.87287 121.84999 2219 ft 142 kts 64°
2026-04-22 14:36 11.87579 121.85593 2091 ft 141 kts 64°
2026-04-22 14:36 11.88158 121.86771 1839 ft 139 kts 64°
2026-04-22 14:37 11.88452 121.87364 1725 ft 139 kts 64°
2026-04-22 14:37 11.89028 121.88526 1472 ft 137 kts 63°
2026-04-22 14:37 11.89462 121.89400 1288 ft 138 kts 64°
2026-04-22 14:37 11.89899 121.90276 1109 ft 139 kts 64°
2026-04-22 14:38 11.90189 121.90858 988 ft 139 kts 62°
2026-04-22 14:38 11.90628 121.91739 811 ft 139 kts 63°
2026-04-22 14:38 11.91065 121.92617 622 ft 138 kts 63°
2026-04-22 14:38 11.91639 121.93790 355 ft 139 kts 62°
2026-04-22 14:39 11.92088 121.94669 149 ft 140 kts 62°
2026-04-22 14:39 11.92521 121.95535 31 ft 124 kts 62°
2026-04-22 14:39 11.92737 121.95956 27 ft 72 kts 63°
2026-04-22 14:40 11.92931 121.96341 25 ft 21 kts 64°
2026-04-22 14:40 11.92969 121.96425 28 ft 8 kts 66°
2026-04-22 14:40 11.92941 121.96469 26 ft 9 kts 151°
2026-04-22 14:40 11.92887 121.96497 27 ft 9 kts 153°
2026-04-22 14:41 11.92828 121.96527 26 ft 8 kts 156°
2026-04-22 14:41 11.92784 121.96493 26 ft 10 kts 242°
2026-04-22 14:41 11.92757 121.96440 27 ft 6 kts 243°
2026-04-22 14:41 11.92732 121.96428 27 ft 5 kts 172°
2026-04-22 14:42 11.92713 121.96435 26 ft 1 kts 157°
2026-04-22 14:42 11.92710 121.96437 26 ft 0 kts 155°